Location: State Camp
(41.2367°N, 77.7828°W)
Time: 01:09:23
(UTC-05:00)

Amateur Radio Satellites - All Passes

Search period start: 17 December 2017 00:39
Search period end: 18 December 2017 00:39
Location: State Camp, 41.2367°N, 77.7828°W

Satellite Date Start Highest point End Downlink Frequencies (MHz)
Time Altitude Azimuth
Gurwin Techsat 1B 17 Dec 00:41:36 00:43:54 13° 89° (E) 00:46:12 435.225
SO-50 17 Dec 00:53:04 00:56:47 23° 248° (WSW) 01:00:31 436.795
AO-91 17 Dec 01:02:46 01:05:15 19° 95° (E) 01:07:43 145.960
QB50P2 17 Dec 01:02:47 01:06:19 26° 291° (WNW) 01:09:51 145.880/145.840
DUCHIFAT 1 17 Dec 01:03:28 01:07:20 36° 289° (WNW) 01:11:11 145.980
VELOX 1 17 Dec 01:13:03 01:16:21 20° 266° (W) 01:19:39 145.980
RS-15 17 Dec 01:13:48 01:23:34 33° 256° (WSW) 01:32:58 29.354- 29.394
Oscar 19 17 Dec 01:17:06 01:21:58 39° 98° (E) 01:26:48 437.125/150
FALCONSAT 3 17 Dec 01:19:45 01:22:29 20° 198° (SSW) 01:25:13 435.103
50 SAT 17 Dec 01:31:42 01:34:41 38° 261° (W) 01:37:40 437.505
ITUPSAT 1 17 Dec 01:32:19 01:34:58 15° 62° (ENE) 01:37:37 437.325
NANOSAT C BR1 17 Dec 01:32:21 01:35:03 17° 295° (WNW) 01:37:46 145.865
BUGSAT 1 17 Dec 01:33:41 01:37:44 72° 284° (WNW) 01:41:47 437.445
UKube-1 17 Dec 01:38:04 01:42:23 77° 256° (WSW) 01:46:44 .
MOZHAYETS 4 17 Dec 01:54:28 01:58:32 33° 70° (ENE) 02:02:37
DX 1 17 Dec 02:00:03 02:03:47 27° 264° (W) 02:07:32 434.975-435.025
Gurwin Techsat 1B 17 Dec 02:19:05 02:24:25 78° 286° (WNW) 02:29:43 435.225
YUBILEINY 17 Dec 02:24:34 02:32:59 52° 89° (E) 02:41:27 435.215
PCSat 17 Dec 02:31:37 02:36:30 33° 51° (NE) 02:41:21 145.827
AO-7 17 Dec 02:37:07 02:43:53 26° 94° (E) 02:50:36 .
BEESAT 17 Dec 02:37:23 02:42:05 66° 73° (ENE) 02:46:48 436.000
ITAMSAT 1 17 Dec 02:37:33 02:39:00 11° 89° (E) 02:40:27 435.822/435.867
AO-91 17 Dec 02:39:06 02:41:42 21° 291° (WNW) 02:44:17 145.960
Oscar 19 17 Dec 02:56:47 03:01:04 27° 295° (WNW) 03:05:21 437.125/150
ITUPSAT 1 17 Dec 03:07:32 03:12:15 63° 258° (WSW) 03:16:58 437.325
CUBESAT XI-V 17 Dec 03:24:02 03:28:40 68° 75° (ENE) 03:33:21 437.345
KKS-1 17 Dec 03:26:46 03:29:17 15° 63° (ENE) 03:31:48 437.445
MOZHAYETS 4 17 Dec 03:32:03 03:35:42 24° 266° (W) 03:39:24
BEESAT 3 17 Dec 03:48:55 03:52:36 37° 51° (NE) 03:56:13 437.485
M-CUBED/EXP-1 PRIME 17 Dec 03:51:43 03:56:09 61° 106° (ESE) 04:00:15 437.505
Gurwin Techsat 1B 17 Dec 04:02:12 04:03:27 11° 303° (WNW) 04:04:42 435.225
STARS 17 Dec 04:02:22 04:04:37 14° 62° (ENE) 04:06:51 437.465
ITAMSAT 1 17 Dec 04:13:53 04:19:06 84° 284° (WNW) 04:24:15 435.822/435.867
PCSat 17 Dec 04:14:57 04:19:55 37° 249° (WSW) 04:24:51 145.827
DOVE 4 17 Dec 04:17:02 04:20:17 20° 92° (E) 04:23:25 437.250
BEESAT 17 Dec 04:18:10 04:20:17 13° 270° (W) 04:22:25 436.000
YUBILEINY 17 Dec 04:22:11 04:30:02 35° 289° (WNW) 04:38:00 435.215
AO-85 17 Dec 04:25:15 04:27:33 13° 38° (NE) 04:29:55 145.980
AO-7 17 Dec 04:28:54 04:37:13 69° 292° (WNW) 04:45:29 .
BEESAT 2 17 Dec 04:35:25 04:39:05 33° 50° (NE) 04:42:43 435.950
KKS-1 17 Dec 05:00:59 05:05:22 56° 259° (W) 05:09:46 437.445
CUBESAT XI-V 17 Dec 05:04:44 05:06:29 12° 271° (W) 05:08:16 437.345
XW-2D 17 Dec 05:08:27 05:09:36 11° 90° (E) 05:10:44 145.860 - 145.880
XW-2B 17 Dec 05:23:15 05:25:44 16° 93° (E) 05:28:12 145.730 - 145.750
BEESAT 3 17 Dec 05:27:05 05:29:50 19° 249° (WSW) 05:32:34 437.485
M-CUBED/EXP-1 PRIME 17 Dec 05:27:25 05:29:55 15° 303° (WNW) 05:32:21 437.505
XW-2F 17 Dec 05:32:32 05:35:23 20° 94° (E) 05:38:13 145.980 - 146.000
STARS 17 Dec 05:36:06 05:40:26 59° 259° (W) 05:44:46 437.465
XW-2C 17 Dec 05:49:58 05:53:31 35° 97° (E) 05:57:02 145.795 - 145.815
DOVE 4 17 Dec 05:54:05 05:58:06 34° 290° (WNW) 06:01:55 437.250
ITAMSAT 1 17 Dec 05:56:09 05:57:43 11° 303° (WNW) 05:59:17 435.822/435.867
CUTE-I 17 Dec 05:59:20 06:04:14 36° 97° (E) 06:09:06 437.470
NO-84 17 Dec 06:03:13 06:06:10 72° 319° (NW) 06:09:20 435.350 FM
AO-85 17 Dec 06:03:54 06:08:43 73° 56° (ENE) 06:13:52 145.980
HO-68 17 Dec 06:05:57 06:11:20 22° 92° (E) 06:16:39 435.675
BEESAT 2 17 Dec 06:13:28 06:16:37 22° 248° (WSW) 06:19:43 435.950
AO-7 17 Dec 06:23:46 06:28:28 17° 313° (NW) 06:33:10 .
FO-29 17 Dec 06:29:23 06:35:51 30° 62° (ENE) 06:42:17 435.910
LilacSat-2 17 Dec 06:29:45 06:33:37 66° 284° (WNW) 06:37:26 437.200
STRAND 1 17 Dec 06:30:04 06:35:05 58° 72° (ENE) 06:40:06 437.568
NUDT-PHONESAT 17 Dec 06:32:15 06:36:02 81° 104° (ESE) 06:39:46 437.300
XW-2D 17 Dec 06:40:18 06:44:03 50° 286° (WNW) 06:47:45 145.860 - 145.880
KAITUO 1B 17 Dec 06:41:05 06:44:53 74° 284° (WNW) 06:48:38 145.475/437.950
SEEDS 17 Dec 06:55:16 06:59:00 29° 96° (E) 07:02:42 437.485
XW-2B 17 Dec 06:56:29 06:59:59 34° 288° (WNW) 07:03:28 145.730 - 145.750
UWE-3 17 Dec 06:59:04 07:02:11 19° 93° (E) 07:05:20 435.000/436.395/437.385
CUBEBUG 2 17 Dec 07:04:38 07:08:39 37° 98° (E) 07:12:46 437.445
XW-2F 17 Dec 07:06:10 07:09:28 28° 290° (WNW) 07:12:45 145.980 - 146.000
AAUSAT CUBESAT 2 17 Dec 07:06:16 07:08:56 16° 92° (E) 07:11:35 437.432
ZACube-1 17 Dec 07:18:02 07:20:45 16° 92° (E) 07:23:30 437.345
O/OREOS (USA 219) 17 Dec 07:20:19 07:24:22 32° 104° (ESE) 07:28:26 437.305
CUTE 1.7 + AOD 2 17 Dec 07:23:27 07:27:46 77° 283° (WNW) 07:32:01 437.475
XW-2C 17 Dec 07:24:54 07:27:24 17° 293° (WNW) 07:29:54 145.795 - 145.815
Oscar 11 17 Dec 07:33:25 07:35:23 13° 90° (E) 07:37:20 .
CUTE-I 17 Dec 07:39:36 07:44:08 29° 294° (WNW) 07:48:39 437.470
NO-84 17 Dec 07:42:18 07:43:58 13° 340° (NNW) 07:45:41 435.350 FM
AO-85 17 Dec 07:45:55 07:48:41 15° 251° (WSW) 07:51:32 145.980
AO-73 17 Dec 07:49:15 07:53:08 30° 96° (E) 07:57:05 145.935
TIGRISAT 17 Dec 07:50:56 07:52:00 11° 62° (ENE) 07:53:04 435.000
HO-68 17 Dec 07:52:29 07:59:35 68° 290° (WNW) 08:06:39 435.675
UNISAT 6 17 Dec 07:54:00 07:56:00 13° 63° (ENE) 07:58:00 437.425
XW-2A 17 Dec 07:55:59 07:59:23 64° 101° (E) 08:02:47 145.665 - 145.685
STRAND 1 17 Dec 08:11:23 08:14:37 17° 269° (W) 08:17:50 437.568
FO-29 17 Dec 08:12:33 08:20:16 65° 259° (W) 08:28:04 435.910
SEEDS 17 Dec 08:31:08 08:34:31 23° 292° (WNW) 08:37:52 437.485
UWE-3 17 Dec 08:34:42 08:38:44 39° 288° (WNW) 08:42:52 435.000/436.395/437.385
AAUSAT CUBESAT 2 17 Dec 08:40:39 08:44:32 39° 288° (WNW) 08:48:24 437.432
CUBEBUG 2 17 Dec 08:41:56 08:45:02 20° 293° (WNW) 08:48:10 437.445
ZACube-1 17 Dec 08:53:01 08:57:14 47° 287° (WNW) 09:01:31 437.345
O/OREOS (USA 219) 17 Dec 08:59:56 09:03:47 26° 302° (WNW) 09:07:38 437.305
Oscar 11 17 Dec 09:07:34 09:11:51 57° 286° (WNW) 09:16:07 .
EO-88 17 Dec 09:11:17 09:12:45 12° 91° (E) 09:14:12 145.990 - 145.960
PRISM 17 Dec 09:13:18 09:16:49 27° 69° (ENE) 09:20:20 437.425
DELFI C3 17 Dec 09:14:58 09:18:30 31° 97° (E) 09:22:01 145.870
TIGRISAT 17 Dec 09:23:50 09:28:05 71° 258° (WSW) 09:32:21 435.000
AO-73 17 Dec 09:25:39 09:29:14 25° 291° (WNW) 09:32:51 145.935
UNISAT 6 17 Dec 09:28:01 09:32:14 57° 260° (W) 09:36:26 437.425
HO-68 17 Dec 09:42:47 09:46:00 14° 309° (NW) 09:49:15 435.675
ISS 17 Dec 09:56:00 09:58:44 25° 134° (SE) 10:01:29 437.550
FO-29 17 Dec 10:04:17 10:06:32 11° 277° (W) 10:08:49 435.910
QB50P2 17 Dec 10:19:55 10:22:59 20° 66° (ENE) 10:26:03 145.880/145.840
DUCHIFAT 1 17 Dec 10:21:07 10:23:18 14° 64° (ENE) 10:25:31 145.980
Max Valier Satellite 17 Dec 10:22:03 10:25:43 52° 285° (WNW) 10:29:20 145.860
AIST 2D 17 Dec 10:34:01 10:37:31 79° 77° (ENE) 10:41:04 435.315
nSIGHT-1 17 Dec 10:38:54 10:42:07 88° 336° (NNW) 10:45:20 .
EO-88 17 Dec 10:43:06 10:46:35 42° 287° (WNW) 10:50:03 145.990 - 145.960
NANOSAT C BR1 17 Dec 10:47:35 10:51:16 31° 70° (ENE) 10:54:57 145.865
PRISM 17 Dec 10:48:35 10:52:01 24° 264° (W) 10:55:27 437.425
DELFI C3 17 Dec 10:50:12 10:53:02 19° 293° (WNW) 10:55:49 145.870
NO-84 17 Dec 10:58:46 11:01:03 16° 23° (NNE) 11:03:27 435.350 FM
LO-87 17 Dec 11:03:57 11:07:14 35° 98° (E) 11:10:32 145.935 - 145.965
EO-79 17 Dec 11:04:30 11:08:35 55° 74° (ENE) 11:12:41 145.935-145.965
POLYITAN 1 17 Dec 11:28:16 11:32:26 79° 257° (WSW) 11:36:38 437.675
ISS 17 Dec 11:31:57 11:35:05 40° 331° (NNW) 11:38:13 437.550
ESTCUBE 1 17 Dec 11:41:28 11:46:01 74° 102° (ESE) 11:50:32 437.505/2401.250
SPROUT 17 Dec 11:43:31 11:46:24 18° 93° (E) 11:49:16 437.525
DUCHIFAT 1 17 Dec 11:54:29 11:58:32 51° 260° (W) 12:02:36 145.980
QB50P2 17 Dec 11:54:42 11:58:31 34° 262° (W) 12:02:23 145.880/145.840
AO-91 17 Dec 11:59:02 12:02:43 23° 69° (ENE) 12:06:08 145.960
Gurwin Techsat 1B 17 Dec 12:01:53 12:05:56 22° 63° (ENE) 12:09:58 435.225
nSIGHT-1 17 Dec 12:16:16 12:18:41 19° 342° (NNW) 12:21:06 .
BUGSAT 1 17 Dec 12:22:50 12:26:51 75° 74° (ENE) 12:30:52 437.445
NANOSAT C BR1 17 Dec 12:23:47 12:26:59 21° 266° (W) 12:30:12 145.865
Oscar 19 17 Dec 12:33:45 12:38:46 57° 72° (ENE) 12:43:50 437.125/150
NO-84 17 Dec 12:35:07 12:38:49 71° 41° (NE) 12:42:48 435.350 FM
YUBILEINY 17 Dec 12:35:13 12:42:15 26° 66° (ENE) 12:49:12 435.215
LO-87 17 Dec 12:38:27 12:40:19 14° 294° (WNW) 12:42:11 145.935 - 145.965
EO-79 17 Dec 12:43:00 12:44:40 12° 269° (W) 12:46:20 145.935-145.965
VELOX 1 17 Dec 13:01:25 13:05:50 76° 102° (ESE) 13:10:13 145.980
ISS 17 Dec 13:10:13 13:12:14 15° 351° (N) 13:14:15 437.550
SPROUT 17 Dec 13:18:28 13:22:25 39° 289° (WNW) 13:26:21 437.525
ESTCUBE 1 17 Dec 13:20:28 13:22:11 12° 299° (WNW) 13:23:53 437.505/2401.250
RS-15 17 Dec 13:22:30 13:33:50 46° 109° (ESE) 13:45:07 29.354- 29.394
UKube-1 17 Dec 13:25:59 13:28:49 17° 93° (E) 13:31:38 .
SO-50 17 Dec 13:29:10 13:30:50 12° 108° (ESE) 13:32:30 436.795
AO-91 17 Dec 13:34:37 13:39:01 35° 262° (W) 13:43:03 145.960
AO-7 17 Dec 13:36:00 13:43:26 38° 60° (ENE) 13:50:55 .
Gurwin Techsat 1B 17 Dec 13:40:23 13:45:31 49° 261° (W) 13:50:41 435.225
DX 1 17 Dec 13:47:20 13:51:33 48° 100° (E) 13:55:44 434.975-435.025
nSIGHT-1 17 Dec 13:54:12 13:55:50 13° 3° (N) 13:57:28 .
ITAMSAT 1 17 Dec 13:54:19 13:57:59 20° 62° (ENE) 14:01:39 435.822/435.867
NO-84 17 Dec 14:13:32 14:15:45 15° 235° (SW) 14:18:04 435.350 FM
Oscar 19 17 Dec 14:15:08 14:18:26 17° 268° (W) 14:21:47 437.125/150
50 SAT 17 Dec 14:19:12 14:22:15 48° 286° (WNW) 14:25:17 437.505
YUBILEINY 17 Dec 14:31:06 14:39:52 71° 267° (W) 14:48:32 435.215
M-CUBED/EXP-1 PRIME 17 Dec 14:36:06 14:40:28 73° 70° (ENE) 14:45:04 437.505
BEESAT 17 Dec 14:38:35 14:41:34 16° 92° (E) 14:44:32 436.000
VELOX 1 17 Dec 14:40:21 14:41:38 11° 299° (WNW) 14:42:54 145.980
ISS 17 Dec 14:47:37 14:49:43 16° 11° (N) 14:51:49 437.550
UKube-1 17 Dec 15:00:56 15:05:00 41° 289° (WNW) 15:09:02 .
SO-50 17 Dec 15:06:12 15:10:39 72° 304° (NW) 15:15:09 436.795
ITUPSAT 1 17 Dec 15:08:06 15:12:23 32° 97° (E) 15:16:38 437.325
DOVE 4 17 Dec 15:21:20 15:25:35 26° 67° (ENE) 15:29:42 437.250
CUBESAT XI-V 17 Dec 15:21:36 15:24:42 17° 92° (E) 15:27:45 437.345
DX 1 17 Dec 15:24:40 15:27:19 16° 296° (WNW) 15:29:58 434.975-435.025
MOZHAYETS 4 17 Dec 15:25:39 15:30:18 78° 102° (ESE) 15:34:55
AO-7 17 Dec 15:27:58 15:35:57 51° 258° (WSW) 15:44:02 .
nSIGHT-1 17 Dec 15:30:10 15:32:53 25° 23° (NNE) 15:35:36 .
ITAMSAT 1 17 Dec 15:31:55 15:37:01 55° 259° (W) 15:42:08 435.822/435.867
RS-15 17 Dec 15:33:55 15:46:03 59° 311° (NW) 15:58:05 29.354- 29.394
M-CUBED/EXP-1 PRIME 17 Dec 16:13:57 16:15:20 11° 267° (W) 16:16:44 437.505
BEESAT 17 Dec 16:14:59 16:19:37 52° 288° (WNW) 16:24:14 436.000
XW-2F 17 Dec 16:15:29 16:16:01 10° 63° (ENE) 16:16:32 145.980 - 146.000
ISS 17 Dec 16:23:38 16:26:49 46° 30° (NNE) 16:30:00 437.550
YUBILEINY 17 Dec 16:31:41 16:34:54 12° 287° (WNW) 16:38:08 435.215
XW-2C 17 Dec 16:31:44 16:34:18 18° 67° (ENE) 16:36:54 145.795 - 145.815
HO-68 17 Dec 16:36:04 16:40:40 19° 54° (NE) 16:45:16 435.675
ITUPSAT 1 17 Dec 16:46:03 16:50:04 27° 293° (WNW) 16:54:05 437.325
SO-50 17 Dec 16:50:07 16:51:56 12° 324° (NW) 16:53:45 436.795
KKS-1 17 Dec 16:52:08 16:55:52 26° 96° (E) 16:59:34 437.445
CUBESAT XI-V 17 Dec 16:57:45 17:02:19 48° 288° (WNW) 17:06:48 437.345
DOVE 4 17 Dec 16:58:06 17:03:01 40° 262° (W) 17:07:48 437.250
MOZHAYETS 4 17 Dec 17:05:09 17:06:47 12° 299° (WNW) 17:08:25
nSIGHT-1 17 Dec 17:06:06 17:09:15 51° 220° (SW) 17:12:22 .
NUDT-PHONESAT 17 Dec 17:10:55 17:14:15 33° 72° (ENE) 17:17:37 437.300
LilacSat-2 17 Dec 17:11:01 17:14:45 56° 75° (ENE) 17:18:33 437.200
PCSat 17 Dec 17:13:40 17:18:13 28° 108° (ESE) 17:22:45 145.827
KAITUO 1B 17 Dec 17:20:22 17:23:58 46° 73° (ENE) 17:27:36 145.475/437.950
XW-2D 17 Dec 17:20:43 17:24:29 72° 76° (ENE) 17:28:18 145.860 - 145.880
CUTE-I 17 Dec 17:20:54 17:26:10 60° 72° (ENE) 17:31:27 437.470
STARS 17 Dec 17:25:45 17:29:16 23° 95° (E) 17:32:46 437.465
O/OREOS (USA 219) 17 Dec 17:29:49 17:34:17 61° 65° (ENE) 17:38:42 437.305
XW-2B 17 Dec 17:36:43 17:40:30 75° 258° (WSW) 17:44:20 145.730 - 145.750
XW-2F 17 Dec 17:45:50 17:49:33 60° 259° (W) 17:53:21 145.980 - 146.000
SEEDS 17 Dec 17:47:03 17:50:15 21° 67° (ENE) 17:53:27 437.485
RS-15 17 Dec 17:52:11 18:01:54 26° 341° (NNW) 18:11:25 29.354- 29.394
UWE-3 17 Dec 17:57:01 17:59:18 15° 65° (ENE) 18:01:35 435.000/436.395/437.385
AAUSAT CUBESAT 2 17 Dec 17:57:29 17:59:00 12° 63° (ENE) 18:00:32 437.432
ISS 17 Dec 18:00:34 18:03:06 21° 227° (SW) 18:05:37 437.550
CUBEBUG 2 17 Dec 18:02:55 18:06:33 30° 70° (ENE) 18:10:11 437.445
XW-2C 17 Dec 18:04:49 18:08:13 32° 263° (W) 18:11:40 145.795 - 145.815
ZACube-1 17 Dec 18:15:11 18:16:46 12° 63° (ENE) 18:18:21 437.345
CUTE 1.7 + AOD 2 17 Dec 18:15:26 18:19:40 72° 76° (ENE) 18:23:57 437.475
HO-68 17 Dec 18:20:13 18:27:26 89° 65° (ENE) 18:34:40 435.675
XW-2A 17 Dec 18:27:20 18:29:49 20° 69° (ENE) 18:32:21 145.665 - 145.685
KKS-1 17 Dec 18:28:33 18:32:22 28° 292° (WNW) 18:36:08 437.445
Oscar 11 17 Dec 18:29:41 18:30:32 10° 61° (ENE) 18:31:23 .
STRAND 1 17 Dec 18:41:25 18:45:04 19° 93° (E) 18:48:41 437.568
AO-73 17 Dec 18:45:08 18:48:20 22° 68° (ENE) 18:51:34 145.935
NUDT-PHONESAT 17 Dec 18:45:55 18:48:10 15° 267° (W) 18:50:27 437.300
PCSat 17 Dec 18:56:16 19:01:23 42° 306° (NW) 19:06:33 145.827
KAITUO 1B 17 Dec 18:56:56 18:58:11 11° 269° (W) 18:59:27 145.475/437.950
STARS 17 Dec 19:01:46 19:05:36 31° 291° (WNW) 19:09:24 437.465
CUTE-I 17 Dec 19:03:06 19:06:35 17° 268° (W) 19:10:05 437.470
O/OREOS (USA 219) 17 Dec 19:11:19 19:13:06 12° 262° (W) 19:14:53 437.305
BEESAT 3 17 Dec 19:14:43 19:18:39 65° 119° (ESE) 19:22:37 437.485
SEEDS 17 Dec 19:21:52 19:25:42 33° 263° (W) 19:29:34 437.485
FO-29 17 Dec 19:25:02 19:29:35 19° 87° (E) 19:33:46 435.910
AAUSAT CUBESAT 2 17 Dec 19:29:45 19:33:53 64° 259° (W) 19:38:04 437.432
UWE-3 17 Dec 19:31:22 19:35:21 47° 261° (W) 19:39:23 435.000/436.395/437.385
CUBEBUG 2 17 Dec 19:39:57 19:43:11 21° 266° (W) 19:46:25 437.445
ZACube-1 17 Dec 19:48:26 19:52:30 60° 259° (W) 19:56:38 437.345
XW-2A 17 Dec 19:59:49 20:02:24 21° 265° (W) 20:05:01 145.665 - 145.685
DELFI C3 17 Dec 20:00:27 20:03:16 19° 67° (ENE) 20:06:07 145.870
Oscar 11 17 Dec 20:01:42 20:06:00 77° 257° (WSW) 20:10:22 .
BEESAT 2 17 Dec 20:03:03 20:06:59 58° 118° (ESE) 20:10:58 435.950
RS-15 17 Dec 20:10:35 20:20:02 25° 17° (NNE) 20:29:08 29.354- 29.394
HO-68 17 Dec 20:11:54 20:16:00 16° 271° (W) 20:20:08 435.675
STRAND 1 17 Dec 20:19:35 20:24:29 49° 289° (WNW) 20:29:23 437.568
AO-85 17 Dec 20:19:55 20:22:43 19° 111° (ESE) 20:25:37 145.980
AO-73 17 Dec 20:20:48 20:24:24 29° 264° (W) 20:28:04 145.935
BEESAT 3 17 Dec 20:54:15 20:56:35 15° 318° (NW) 20:58:56 437.485
Max Valier Satellite 17 Dec 21:00:10 21:03:45 62° 76° (ENE) 21:07:24 145.860
FO-29 17 Dec 21:08:39 21:15:23 66° 288° (WNW) 21:21:15 435.910
TIGRISAT 17 Dec 21:15:24 21:18:54 23° 95° (E) 21:22:26 435.000
UNISAT 6 17 Dec 21:19:27 21:23:14 28° 96° (E) 21:27:04 437.425
EO-88 17 Dec 21:19:48 21:23:25 75° 76° (ENE) 21:27:05 145.990 - 145.960
FALCONSAT 3 17 Dec 21:28:03 21:31:07 25° 167° (SSE) 21:34:11 435.103
DELFI C3 17 Dec 21:34:09 21:37:46 33° 263° (W) 21:41:24 145.870
LO-87 17 Dec 21:40:43 21:42:47 15° 67° (ENE) 21:44:52 145.935 - 145.965
BEESAT 2 17 Dec 21:42:27 21:45:03 16° 317° (NW) 21:47:40 435.950
SO-50 17 Dec 21:57:57 22:00:50 16° 40° (NE) 22:03:44 436.795
AO-85 17 Dec 21:59:09 22:02:48 36° 310° (NW) 22:06:40 145.980
RS-15 17 Dec 22:24:11 22:35:54 58° 48° (NE) 22:46:55 29.354- 29.394
PRISM 17 Dec 22:28:53 22:32:48 41° 99° (E) 22:36:38 437.425
SPROUT 17 Dec 22:37:26 22:39:43 14° 64° (ENE) 22:41:58 437.525
ESTCUBE 1 17 Dec 22:40:29 22:44:58 66° 74° (ENE) 22:49:29 437.505/2401.250
TIGRISAT 17 Dec 22:51:42 22:55:36 32° 290° (WNW) 22:59:33 435.000
UNISAT 6 17 Dec 22:56:11 22:59:51 27° 291° (WNW) 23:03:35 437.425
FO-29 17 Dec 22:56:45 22:58:54 12° 310° (NW) 23:00:58 435.910
FALCONSAT 3 17 Dec 23:06:26 23:09:46 33° 182° (S) 23:13:06 435.103
LO-87 17 Dec 23:12:43 23:15:54 32° 263° (W) 23:19:06 145.935 - 145.965
POLYITAN 1 17 Dec 23:13:55 23:16:38 17° 93° (E) 23:19:21 437.675
AIST 2D 17 Dec 23:31:37 23:35:11 83° 286° (WNW) 23:38:43 435.315
SO-50 17 Dec 23:37:11 23:41:53 84° 237° (WSW) 23:46:37 436.795
DUCHIFAT 1 17 Dec 23:38:33 23:41:57 23° 95° (E) 23:45:20 145.980
QB50P2 17 Dec 23:39:01 23:42:55 35° 98° (E) 23:46:47 145.880/145.840
VELOX 1 17 Dec 23:58:04 00:02:28 66° 74° (ENE) 00:06:53 145.980
PRISM 18 Dec 00:05:09 00:07:42 16° 295° (WNW) 00:10:14 437.425
NANOSAT C BR1 18 Dec 00:06:34 00:10:43 57° 101° (E) 00:14:52 145.865
BUGSAT 1 18 Dec 00:07:19 00:07:42 10° 90° (E) 00:08:06 437.445
SPROUT 18 Dec 00:11:00 00:15:08 52° 260° (W) 00:19:18 437.525
ESTCUBE 1 18 Dec 00:20:35 00:22:11 12° 270° (W) 00:23:49 437.505/2401.250
UKube-1 18 Dec 00:20:47 00:23:20 16° 64° (ENE) 00:25:56 .
EO-79 18 Dec 00:24:22 00:28:35 78° 284° (WNW) 00:32:48 145.935-145.965
